Weather History for Athens, TX

Change the Weather History Date:

Wednesday, November 20, 2013

  Actual Average (KTYR) Record (KTYR)
Temperature  
Mean Temperature 48 °F 54 °F  
Max Temperature 60 °F 63 °F 82 °F (2011)
Min Temperature 37 °F 44 °F 22 °F (1903)
Degree Days  
Heating Degree Days 16 11  
Month to date heating degree days 164  
Since 1 July heating degree days 241  
Cooling Degree Days 0 0  
Month to date cooling degree days 14  
Year to date cooling degree days 2407  
Moisture  
Dew Point 40 °F    
Average Humidity 62    
Maximum Humidity 93    
Minimum Humidity 44    
Precipitation  
Precipitation 0.00 in 0.13 in 4.18 in (1907)
Month to date precipitation 2.86  
Year to date precipitation 40.31  
Snow  
Snow 0.00 in - - ()
Month to date snowfall  
Since 1 July snowfall  
Since 1 September snowfall  
Snow Depth -    
Sea Level Pressure  
Sea Level Pressure 30.01 in    
Wind  
Wind Speed 3 mph (SE)    
Max Wind Speed 9 mph    
Max Gust Speed -    
Visibility 10 miles    
Events Rain    
T = Trace of Precipitation, MM = Missing Value Source: NWS Daily Summary

Daily Weather History Graph

Daily Weather History Graph

Search for Another Location

Airport:

Trip Planner

Search our weather history database for the weather conditions in past years. The results will help you decide how hot, cold, wet, or windy it might be!

Date:

Astronomy

Nov. 20, 2013 Rise Set
Actual Time 6:57 AM CST 5:20 PM CST
Civil Twilight 6:30 AM CST 5:46 PM CST
Nautical Twilight 6:00 AM CST 6:16 PM CST
Astronomical Twilight 5:31 AM CST 6:46 PM CST
Moon 8:04 PM CST (11/20) 9:22 AM CST (11/20)
Length of Visible Light 11h 16m
Length of Day
10h 23m
Waning Gibbous, 91% of the Moon is Illuminated
Nov 20
Waning Gibbous
Nov 25
Last Quarter
Dec 2
New
Dec 9
First Quarter
Dec 17
Full

Hourly Weather History & Observations

Time (CST) Temp. Windchill Dew Point Humidity Pressure Visibility Wind Dir Wind Speed Gust Speed Precip Events Conditions
12:15 AM 50.0 °F - 32.0 °F 50% 30.06 in 10.0 mi Calm Calm - N/A   Clear
12:35 AM 48.2 °F - 32.0 °F 54% 30.05 in 10.0 mi Calm Calm - N/A   Clear
12:55 AM 46.4 °F - 32.0 °F 57% 30.04 in 10.0 mi Calm Calm - N/A   Clear
1:15 AM 48.2 °F - 32.0 °F 54% 30.05 in 10.0 mi Calm Calm - N/A   Clear
1:35 AM 46.4 °F 45.2 °F 32.0 °F 57% 30.05 in 10.0 mi ESE 3.5 mph - N/A   Clear
2:15 AM 44.6 °F 43.1 °F 33.8 °F 66% 30.05 in 10.0 mi SE 3.5 mph - N/A   Clear
2:35 AM 44.6 °F - 32.0 °F 61% 30.04 in 10.0 mi Calm Calm - N/A   Clear
2:55 AM 44.6 °F 43.1 °F 32.0 °F 61% 30.04 in 10.0 mi SSE 3.5 mph - N/A   Clear
3:15 AM 44.6 °F - 33.8 °F 66% 30.04 in 10.0 mi Calm Calm - N/A   Clear
3:35 AM 42.8 °F - 35.6 °F 76% 30.05 in 10.0 mi Calm Calm - N/A   Clear
3:55 AM 41.0 °F - 33.8 °F 76% 30.04 in 10.0 mi Calm Calm - N/A   Clear
4:15 AM 41.0 °F - 33.8 °F 76% 30.04 in 10.0 mi Calm Calm - N/A   Clear
4:35 AM 41.0 °F - 33.8 °F 76% 30.04 in 10.0 mi Calm Calm - N/A   Clear
4:55 AM 41.0 °F - 35.6 °F 81% 30.05 in 10.0 mi Calm Calm - N/A   Clear
5:15 AM 41.0 °F - 35.6 °F 81% 30.04 in 10.0 mi Calm Calm - N/A   Clear
5:35 AM 37.4 °F - 35.6 °F 93% 30.04 in 10.0 mi Calm Calm - N/A   Clear
6:15 AM 37.4 °F - 35.6 °F 93% 30.04 in 10.0 mi Calm Calm - N/A   Clear
6:35 AM 39.2 °F - 33.8 °F 81% 30.05 in 10.0 mi Calm Calm - N/A   Clear
6:55 AM 37.4 °F - 33.8 °F 87% 30.05 in 10.0 mi Calm Calm - N/A   Clear
7:15 AM 37.4 °F - 35.6 °F 93% 30.05 in 10.0 mi Calm Calm - N/A   Clear
7:35 AM 41.0 °F - 35.6 °F 81% 30.05 in 10.0 mi Calm Calm - N/A   Clear
7:55 AM 42.8 °F 41.1 °F 35.6 °F 76% 30.04 in 10.0 mi ESE 3.5 mph - N/A   Clear
8:15 AM 44.6 °F 40.7 °F 33.8 °F 66% 30.05 in 10.0 mi SE 6.9 mph - N/A   Clear
8:35 AM 46.4 °F 42.4 °F 33.8 °F 62% 30.05 in 10.0 mi SE 8.1 mph - N/A   Scattered Clouds
8:55 AM 50.0 °F - 33.8 °F 54% 30.06 in 10.0 mi SE 8.1 mph - N/A   Overcast
9:15 AM 51.8 °F - 33.8 °F 50% 30.06 in 10.0 mi SE 5.8 mph - N/A   Overcast
9:35 AM 51.8 °F - 33.8 °F 50% 30.06 in 10.0 mi SSE 8.1 mph - N/A   Overcast
9:55 AM 53.6 °F - 33.8 °F 47% 30.06 in 10.0 mi SE 6.9 mph - N/A   Overcast
10:15 AM 55.4 °F - 33.8 °F 44% 30.06 in 10.0 mi SSE 6.9 mph - N/A   Overcast
10:35 AM 55.4 °F - 33.8 °F 44% 30.05 in 10.0 mi SE 5.8 mph - N/A   Overcast
10:55 AM 55.4 °F - 35.6 °F 47% 30.04 in 10.0 mi SE 8.1 mph - N/A   Overcast
11:15 AM 55.4 °F - 35.6 °F 47% 30.04 in 10.0 mi SE 6.9 mph - N/A   Overcast
11:35 AM 55.4 °F - 37.4 °F 51% 30.04 in 10.0 mi SE 4.6 mph - N/A   Overcast
11:55 AM 57.2 °F - 37.4 °F 48% 30.02 in 10.0 mi SE 5.8 mph - N/A   Overcast
12:15 PM 57.2 °F - 37.4 °F 48% 30.01 in 10.0 mi ESE 6.9 mph - N/A   Overcast
12:35 PM 57.2 °F - 37.4 °F 48% 30.01 in 10.0 mi SSE 5.8 mph - N/A   Overcast
12:55 PM 57.2 °F - 39.2 °F 51% 29.99 in 10.0 mi ESE 6.9 mph - N/A   Overcast
1:15 PM 57.2 °F - 39.2 °F 51% 29.98 in 10.0 mi SE 6.9 mph - N/A   Overcast
1:35 PM 59.0 °F - 41.0 °F 51% 29.98 in 10.0 mi SSE 5.8 mph - N/A   Overcast
1:55 PM 59.0 °F - 41.0 °F 51% 29.97 in 10.0 mi SE 5.8 mph - N/A   Overcast
2:15 PM 59.0 °F - 42.8 °F 55% 29.96 in 10.0 mi SE 6.9 mph - N/A   Overcast
2:35 PM 59.0 °F - 42.8 °F 55% 29.96 in 10.0 mi SE 6.9 mph - N/A   Overcast
2:55 PM 59.0 °F - 42.8 °F 55% 29.95 in 10.0 mi SSE 5.8 mph - N/A   Overcast
3:15 PM 60.8 °F - 44.6 °F 55% 29.95 in 10.0 mi SE 8.1 mph - N/A   Overcast
3:35 PM 59.0 °F - 44.6 °F 59% 29.95 in 10.0 mi SE 6.9 mph - N/A   Overcast
3:55 PM 60.8 °F - 44.6 °F 55% 29.95 in 10.0 mi SE 9.2 mph - N/A   Overcast
4:15 PM 60.8 °F - 44.6 °F 55% 29.95 in 10.0 mi SE 4.6 mph - N/A   Overcast
4:35 PM 60.8 °F - 44.6 °F 55% 29.95 in 10.0 mi SE 5.8 mph - N/A   Overcast
4:55 PM 60.8 °F - 44.6 °F 55% 29.95 in 10.0 mi ESE 4.6 mph - N/A   Overcast
5:15 PM 59.0 °F - 44.6 °F 59% 29.96 in 10.0 mi SE 4.6 mph - N/A   Overcast
5:35 PM 59.0 °F - 44.6 °F 59% 29.96 in 10.0 mi SE 4.6 mph - N/A   Overcast
5:55 PM 59.0 °F - 44.6 °F 59% 29.96 in 10.0 mi SE 3.5 mph - N/A   Overcast
6:15 PM 59.0 °F - 44.6 °F 59% 29.97 in 10.0 mi SE 4.6 mph - N/A   Overcast
6:35 PM 59.0 °F - 46.4 °F 63% 29.98 in 10.0 mi Calm Calm - N/A   Overcast
6:55 PM 59.0 °F - 46.4 °F 63% 29.98 in 10.0 mi SE 3.5 mph - N/A   Overcast
7:15 PM 59.0 °F - 46.4 °F 63% 29.99 in 10.0 mi SE 3.5 mph - N/A   Overcast
7:35 PM 59.0 °F - 46.4 °F 63% 29.99 in 10.0 mi SSE 3.5 mph - N/A   Overcast
7:55 PM 59.0 °F - 46.4 °F 63% 29.99 in 10.0 mi SE 4.6 mph - N/A   Overcast
8:15 PM 59.0 °F - 46.4 °F 63% 29.99 in 10.0 mi SE 4.6 mph - N/A   Mostly Cloudy
8:35 PM 59.0 °F - 46.4 °F 63% 29.99 in 10.0 mi SE 4.6 mph - N/A   Overcast
8:55 PM 59.0 °F - 46.4 °F 63% 29.98 in 10.0 mi SE 9.2 mph - N/A   Mostly Cloudy
9:15 PM 59.0 °F - 46.4 °F 63% 29.98 in 10.0 mi SE 8.1 mph - N/A   Scattered Clouds
9:35 PM 59.0 °F - 46.4 °F 63% 29.98 in 10.0 mi SE 8.1 mph - N/A   Scattered Clouds
9:55 PM 59.0 °F - 46.4 °F 63% 29.99 in 10.0 mi SE 6.9 mph - N/A   Overcast
10:15 PM 59.0 °F - 46.4 °F 63% 29.99 in 10.0 mi SSE 8.1 mph - N/A   Overcast
10:35 PM 59.0 °F - 46.4 °F 63% 29.98 in 10.0 mi SE 5.8 mph - N/A Rain Rain
10:55 PM 59.0 °F - 46.4 °F 63% 29.98 in 10.0 mi SE 5.8 mph - N/A   Overcast
11:15 PM 59.0 °F - 46.4 °F 63% 29.99 in 10.0 mi SSE 5.8 mph - N/A   Mostly Cloudy
11:35 PM 60.8 °F - 48.2 °F 63% 29.99 in 10.0 mi SE 5.8 mph - N/A   Mostly Cloudy
11:55 PM 60.8 °F - 50.0 °F 68% 29.98 in 10.0 mi SE 6.9 mph - N/A   Overcast